Tracking 18840 objects as of 17-November-2017
HD Live streaming from Space Station
objects crossing your sky now

SL-24 R/B

Track SL-24 R/B now!
10-day predictions


NORAD ID: 27610
Int'l Code: 2002-058F
Perigee: 596.8 km
Apogee: 1,013.6 km
Inclination: 64.6 °
Period: 100.8 minutes
Semi major axis: 7176 km
RCS: 7.1875 m2 (large)
Launch date: December 20, 2002
Source: Commonwealth of Independent States (former USSR) (CIS)
Launch site: TYURATAM MISSILE AND SPACE COMPLEX (TTMTR)

Note: This is a ROCKET BODY
aabbcc
Your satellite tracking list
Your tracking list is empty




NASA's NSSDC Master Catalog

Two Line Element Set (TLE):
1 27610U 02058F   17320.87311990 -.00000084 +00000-0 +11698-4 0  9994
2 27610 064.5595 068.0063 0290388 171.1847 323.8204 14.28118166777184
Source of the keplerian elements: AFSPC